IT9KWW-13 Weather Reports


time (UTC)temp
C
wind
direction
speed
KPH
gust
KPH
rain 1hr
cm
rain 24hr
cm
rain mn
cm
humidity
%
barometer
mb
20260906101620 34 112 6.4 8.0 0.00 0.00 0.00 36 1015.9
20260906101419 34 90 3.2 3.2 0.00 0.00 0.00 37 1015.9
20260906101207 34 68 11.3 11.3 0.00 0.00 0.00 37 1015.9
20260906100955 34 68 12.9 14.5 0.00 0.00 0.00 36 1015.9
20260906100755 34 90 8.0 8.0 0.00 0.00 0.00 37 1015.9
20260906100555 33 68 8.0 8.0 0.00 0.00 0.00 36 1015.9
20260906100343 33 90 8.0 8.0 0.00 0.00 0.00 36 1015.9
20260906100143 33 68 4.8 4.8 0.00 0.00 0.00 37 1015.9
20260906095943 33 45 9.7 11.3 0.00 0.00 0.00 37 1015.9
20260906095731 33 68 3.2 3.2 0.00 0.00 0.00 36 1015.9
20260906095531 33 68 12.9 12.9 0.00 0.00 0.00 37 1015.9
20260906095331 33 68 12.9 14.5 0.00 0.00 0.00 36 1015.9
20260906095121 33 90 8.0 8.0 0.00 0.00 0.00 37 1015.9
20260906094907 33 68 9.7 11.3 0.00 0.00 0.00 37 1015.9
20260906094707 33 68 12.9 14.5 0.00 0.00 0.00 37 1015.9
20260906094455 33 90 11.3 12.9 0.00 0.00 0.00 37 1015.9
20260906094255 33 22 11.3 12.9 0.00 0.00 0.00 37 1015.9
20260906094055 33 22 8.0 8.0 0.00 0.00 0.00 37 1015.9
20260906093843 33 90 4.8 4.8 0.00 0.00 0.00 37 1015.9
20260906093643 33 22 14.5 14.5 0.00 0.00 0.00 39 1015.9
20260906093443 33 68 6.4 6.4 0.00 0.00 0.00 38 1015.9
20260906093231 33 90 6.4 8.0 0.00 0.00 0.00 38 1015.9
20260906093031 33 68 11.3 12.9 0.00 0.00 0.00 38 1015.9
20260906092831 33 68 9.7 9.7 0.00 0.00 0.00 37 1015.9
20260906092619 33 45 12.9 12.9 0.00 0.00 0.00 38 1015.9
20260906092419 33 90 8.0 9.7 0.00 0.00 0.00 38 1015.9
20260906092219 33 22 11.3 11.3 0.00 0.00 0.00 37 1015.9
20260906092007 33 68 9.7 9.7 0.00 0.00 0.00 37 1015.9
20260906091807 33 68 11.3 12.9 0.00 0.00 0.00 38 1016.9
20260906091607 33 68 11.3 11.3 0.00 0.00 0.00 38 1016.9
20260906091357 33 90 12.9 12.9 0.00 0.00 0.00 38 1016.9
20260906091155 33 45 9.7 9.7 0.00 0.00 0.00 39 1016.9
20260906090955 33 68 12.9 12.9 0.00 0.00 0.00 38 1016.9
20260906090745 33 68 12.9 12.9 0.00 0.00 0.00 39 1016.9
20260906090543 33 22 12.9 12.9 0.00 0.00 0.00 39 1016.9
20260906090343 33 68 9.7 9.7 0.00 0.00 0.00 39 1016.9
20260906090131 33 90 11.3 11.3 0.00 0.00 0.00 38 1016.9
20260906085931 33 68 9.7 9.7 0.00 0.00 0.00 38 1015.9
20260906085731 33 90 6.4 6.4 0.00 0.00 0.00 37 1015.9
20260906085519 33 112 8.0 8.0 0.00 0.00 0.00 38 1015.9
20260906085320 33 45 12.9 14.5 0.00 0.00 0.00 37 1015.9
20260906085119 33 22 11.3 11.3 0.00 0.00 0.00 36 1015.9
20260906084907 33 68 3.2 3.2 0.00 0.00 0.00 36 1015.9
20260906084655 33 68 11.3 11.3 0.00 0.00 0.00 36 1015.9
20260906084455 33 22 8.0 8.0 0.00 0.00 0.00 37 1015.9
20260906084243 33 45 6.4 6.4 0.00 0.00 0.00 37 1015.9
20260906084043 33 68 3.2 3.2 0.00 0.00 0.00 36 1015.9
20260906083843 33 68 9.7 9.7 0.00 0.00 0.00 34 1015.9
20260906083633 33 68 3.2 3.2 0.00 0.00 0.00 37 1015.9
20260906083431 33 68 6.4 6.4 0.00 0.00 0.00 35 1015.9
20260906083231 33 45 9.7 9.7 0.00 0.00 0.00 36 1015.9
20260906083019 33 68 8.0 8.0 0.00 0.00 0.00 36 1015.9
20260906082819 33 68 4.8 4.8 0.00 0.00 0.00 36 1015.9
20260906082619 33 112 8.0 8.0 0.00 0.00 0.00 35 1015.9
20260906082407 33 90 9.7 9.7 0.00 0.00 0.00 36 1015.9
20260906082207 33 90 6.4 8.0 0.00 0.00 0.00 37 1015.9
20260906082006 33 112 11.3 11.3 0.00 0.00 0.00 36 1015.9
20260906081755 33 90 8.0 8.0 0.00 0.00 0.00 36 1015.9
20260906081555 33 45 3.2 3.2 0.00 0.00 0.00 36 1015.9
20260906081354 33 68 12.9 12.9 0.00 0.00 0.00 36 1015.9
20260906081143 33 68 4.8 4.8 0.00 0.00 0.00 36 1015.9
20260906080931 33 68 8.0 8.0 0.00 0.00 0.00 36 1015.9
20260906080730 33 90 11.3 12.9 0.00 0.00 0.00 36 1015.9
20260906080519 33 68 8.0 8.0 0.00 0.00 0.00 37 1015.9
20260906080319 33 112 8.0 8.0 0.00 0.00 0.00 36 1015.9
20260906080119 33 90 8.0 8.0 0.00 0.00 0.00 37 1015.9
20260906075907 33 90 9.7 11.3 0.00 0.00 0.00 37 1015.9
20260906075707 33 68 4.8 4.8 0.00 0.00 0.00 37 1015.9
20260906075507 33 68 11.3 11.3 0.00 0.00 0.00 37 1015.9
20260906075255 33 68 12.9 12.9 0.00 0.00 0.00 36 1015.9
20260906075054 33 90 6.4 6.4 0.00 0.00 0.00 36 1015.9
20260906074855 33 90 9.7 9.7 0.00 0.00 0.00 37 1015.9
20260906074643 33 68 11.3 11.3 0.00 0.00 0.00 36 1015.9
20260906074443 33 68 8.0 8.0 0.00 0.00 0.00 36 1015.9
20260906074243 32 68 6.4 6.4 0.00 0.00 0.00 35 1015.9
20260906074031 32 68 4.8 4.8 0.00 0.00 0.00 35 1015.9
20260906073831 32 68 8.0 8.0 0.00 0.00 0.00 35 1015.9
20260906073631 32 22 8.0 8.0 0.00 0.00 0.00 35 1015.9
20260906073419 32 45 4.8 4.8 0.00 0.00 0.00 35 1015.9
20260906073219 32 22 9.7 11.3 0.00 0.00 0.00 36 1015.9
20260906073018 32 22 8.0 8.0 0.00 0.00 0.00 36 1015.9
20260906072807 32 45 9.7 9.7 0.00 0.00 0.00 37 1015.9
20260906072607 32 22 8.0 8.0 0.00 0.00 0.00 37 1015.9
20260906072406 32 22 8.0 8.0 0.00 0.00 0.00 37 1015.9
20260906072144 32 68 3.2 3.2 0.00 0.00 0.00 38 1015.9
20260906071943 32 68 4.8 4.8 0.00 0.00 0.00 39 1015.9
20260906071742 32 68 3.2 3.2 0.00 0.00 0.00 42 1015.9
20260906071536 32 68 3.2 3.2 0.00 0.00 0.00 40 1015.9
20260906071331 32 68 4.8 4.8 0.00 0.00 0.00 41 1015.9
20260906071130 32 158 3.2 3.2 0.00 0.00 0.00 41 1015.9
20260906070919 32 158 3.2 3.2 0.00 0.00 0.00 41 1015.9
20260906070719 33 158 6.4 6.4 0.00 0.00 0.00 41 1015.9
20260906070518 33 158 4.8 4.8 0.00 0.00 0.00 41 1015.9
20260906070307 32 90 3.2 3.2 0.00 0.00 0.00 42 1015.9
20260906070106 32 68 6.4 8.0 0.00 0.00 0.00 40 1015.9
20260906065907 33 68 11.3 12.9 0.00 0.00 0.00 38 1015.9
20260906065655 32 112 1.6 1.6 0.00 0.00 0.00 39 1015.9
20260906065454 32 112 3.2 3.2 0.00 0.00 0.00 41 1015.9
20260906065255 32 112 0.0 0.0 0.00 0.00 0.00 42 1015.9
20260906065043 32 112 3.2 3.2 0.00 0.00 0.00 43 1015.9
20260906064842 32 112 3.2 3.2 0.00 0.00 0.00 42 1015.9
20260906064642 32 112 3.2 3.2 0.00 0.00 0.00 41 1015.9
20260906064431 31 292 1.6 1.6 0.00 0.00 0.00 40 1015.9
20260906064218 31 292 0.0 0.0 0.00 0.00 0.00 44 1015.9
20260906064006 30 292 0.0 0.0 0.00 0.00 0.00 45 1015.9
20260906063755 30 292 3.2 3.2 0.00 0.00 0.00 46 1015.9
20260906063554 30 292 0.0 0.0 0.00 0.00 0.00 48 1015.9
20260906063354 29 292 3.2 3.2 0.00 0.00 0.00 47 1015.9
20260906063143 29 292 0.0 0.0 0.00 0.00 0.00 48 1015.9
20260906062942 28 292 1.6 1.6 0.00 0.00 0.00 49 1015.9
20260906062730 28 292 3.2 3.2 0.00 0.00 0.00 50 1015.9
20260906062519 28 292 0.0 0.0 0.00 0.00 0.00 51 1015.9
20260906062318 28 292 4.8 4.8 0.00 0.00 0.00 52
20260906062119 27 292 3.2 3.2 0.00 0.00 0.00 51
20260906061941 27 315 1.6 1.6 0.00 0.00 0.00 52
20260906061642 27 315 3.2 3.2 0.00 0.00 0.00 53 1015.9
20260906061442 27 315 3.2 3.2 0.00 0.00 0.00 54 1015.9
20260906061231 26 315 3.2 3.2 0.00 0.00 0.00 55 1015.9
20260906061030 26 338 4.8 4.8 0.00 0.00 0.00 54 1015.9
20260906060830 26 338 8.0 8.0 0.00 0.00 0.00 54 1015.9
20260906060619 26 338 3.2 3.2 0.00 0.00 0.00 55 1015.9
20260906060418 26 338 6.4 8.0 0.00 0.00 0.00 55 1014.9
20260906060218 26 338 3.2 3.2 0.00 0.00 0.00 55 1014.9
20260906060007 26 338 8.0 8.0 0.00 0.00 0.00 55 1014.9
20260906055807 26 315 8.0 8.0 0.00 0.00 0.00 55 1014.9
20260906055606 26 338 4.8 4.8 0.00 0.00 0.00 56 1014.9
20260906055355 26 315 4.8 4.8 0.00 0.00 0.00 56 1014.9
20260906055155 26 315 8.0 9.7 0.00 0.00 0.00 55 1014.9
20260906054954 26 292 4.8 4.8 0.00 0.00 0.00 56 1014.9
20260906054743 25 338 4.8 4.8 0.00 0.00 0.00 56 1014.9
20260906054542 25 292 1.6 1.6 0.00 0.00 0.00 57 1014.9
20260906054342 25 292 0.0 0.0 0.00 0.00 0.00 58 1014.9
20260906054131 25 292 3.2 3.2 0.00 0.00 0.00 58 1014.9
20260906053930 24 315 3.2 3.2 0.00 0.00 0.00 58 1014.9
20260906053730 24 315 4.8 4.8 0.00 0.00 0.00 59 1014.9
20260906053519 24 292 6.4 6.4 0.00 0.00 0.00 59 1014.9
20260906053318 24 292 4.8 6.4 0.00 0.00 0.00 60 1014.9
20260906053118 23 292 4.8 4.8 0.00 0.00 0.00 60 1014.9
20260906052907 23 292 3.2 3.2 0.00 0.00 0.00 61 1014.9
20260906052706 23 270 3.2 3.2 0.00 0.00 0.00 61 1014.9
20260906052506 23 292 4.8 6.4 0.00 0.00 0.00 61 1014.9
20260906052255 23 292 4.8 4.8 0.00 0.00 0.00 61 1014.9
20260906052054 23 292 4.8 6.4 0.00 0.00 0.00 61 1014.9
20260906051854 23 292 3.2 3.2 0.00 0.00 0.00 61 1014.9
20260906051643 23 338 4.8 4.8 0.00 0.00 0.00 61 1014.9
20260906051430 23 292 4.8 4.8 0.00 0.00 0.00 61 1014.9
20260906051230 23 270 8.0 8.0 0.00 0.00 0.00 61 1014.9
20260906051019 23 270 8.0 8.0 0.00 0.00 0.00 62 1014.9
20260906050818 23 315 8.0 8.0 0.00 0.00 0.00 62 1014.9
20260906050618 23 315 4.8 4.8 0.00 0.00 0.00 62 1014.9
20260906050407 23 292 4.8 4.8 0.00 0.00 0.00 62 1014.9
20260906050156 23 292 3.2 3.2 0.00 0.00 0.00 62 1014.9
20260906045954 23 292 4.8 4.8 0.00 0.00 0.00 61 1014.9
20260906045743 23 315 3.2 3.2 0.00 0.00 0.00 61 1014.9
20260906045542 23 292 8.0 8.0 0.00 0.00 0.00 61 1014.9
20260906045330 23 292 8.0 8.0 0.00 0.00 0.00 62 1014.9
20260906045119 23 292 9.7 9.7 0.00 0.00 0.00 61 1014.9
20260906044906 23 338 9.7 9.7 0.00 0.00 0.00 62 1014.9
20260906044706 23 315 8.0 8.0 0.00 0.00 0.00 62 1014.9
20260906044455 22 338 6.4 6.4 0.00 0.00 0.00 62 1014.9
20260906044254 22 315 8.0 8.0 0.00 0.00 0.00 62 1014.9
20260906044054 22 315 8.0 8.0 0.00 0.00 0.00 62 1014.9
20260906043843 22 315 3.2 3.2 0.00 0.00 0.00 62 1014.9
20260906043644 22 292 6.4 6.4 0.00 0.00 0.00 62 1014.9
20260906043442 22 315 6.4 8.0 0.00 0.00 0.00 62 1014.9
20260906043231 22 315 8.0 8.0 0.00 0.00 0.00 62 1014.9
20260906043030 22 292 4.8 4.8 0.00 0.00 0.00 63 1014.9
20260906042830 22 315 3.2 3.2 0.00 0.00 0.00 63 1014.9
20260906042619 22 292 4.8 4.8 0.00 0.00 0.00 63 1014.9
20260906042418 22 292 6.4 6.4 0.00 0.00 0.00 63 1014.9
20260906042219 22 292 6.4 8.0 0.00 0.00 0.00 63 1014.9
20260906042007 22 315 3.2 3.2 0.00 0.00 0.00 63 1014.9
20260906041806 22 315 3.2 3.2 0.00 0.00 0.00 63 1014.9
20260906041606 22 315 3.2 3.2 0.00 0.00 0.00 62 1014.9
20260906041355 22 315 3.2 3.2 0.00 0.00 0.00 61 1014.9
20260906041154 22 315 3.2 3.2 0.00 0.00 0.00 61 1014.9
20260906040954 22 315 3.2 3.2 0.00 0.00 0.00 61 1014.9
20260906040743 22 315 4.8 4.8 0.00 0.00 0.00 61 1014.9
20260906040543 22 315 3.2 3.2 0.00 0.00 0.00 61 1014.9
20260906040342 22 292 4.8 4.8 0.00 0.00 0.00 60 1014.9
20260906040131 22 292 3.2 3.2 0.00 0.00 0.00 60 1014.9
20260906035930 22 292 3.2 3.2 0.00 0.00 0.00 61 1014.9
20260906035730 22 292 4.8 4.8 0.00 0.00 0.00 61 1014.9
20260906035519 22 292 8.0 8.0 0.00 0.00 0.00 62 1014.9
20260906035318 22 270 6.4 6.4 0.00 0.00 0.00 63 1014.9
20260906035118 22 292 6.4 6.4 0.00 0.00 0.00 63 1014.9
20260906034907 22 292 3.2 3.2 0.00 0.00 0.00 63 1014.9
20260906034706 22 292 4.8 4.8 0.00 0.00 0.00 63 1014.9
20260906034506 22 292 6.4 6.4 0.00 0.00 0.00 63 1014.9
20260906034255 22 292 3.2 3.2 0.00 0.00 0.00 63 1014.9
20260906034054 22 292 6.4 8.0 0.00 0.00 0.00 63 1014.9
20260906033854 22 292 3.2 3.2 0.00 0.00 0.00 63 1014.9
20260906033643 22 292 3.2 3.2 0.00 0.00 0.00 63 1014.9
20260906033442 22 292 3.2 3.2 0.00 0.00 0.00 63 1014.9
20260906033242 22 292 4.8 4.8 0.00 0.00 0.00 63 1014.9
20260906033031 22 292 3.2 3.2 0.00 0.00 0.00 63 1014.9
20260906032830 22 292 3.2 3.2 0.00 0.00 0.00 63 1014.9
20260906032630 22 292 4.8 4.8 0.00 0.00 0.00 63 1014.9
20260906032419 22 292 4.8 4.8 0.00 0.00 0.00 62 1014.9
20260906032218 22 292 1.6 1.6 0.00 0.00 0.00 62 1014.9
20260906032018 22 292 3.2 3.2 0.00 0.00 0.00 62 1014.9
20260906031807 22 292 3.2 3.2 0.00 0.00 0.00 62 1014.9
20260906031606 22 292 4.8 6.4 0.00 0.00 0.00 62 1014.9
20260906031406 22 292 3.2 3.2 0.00 0.00 0.00 61 1014.9
20260906031155 22 292 3.2 3.2 0.00 0.00 0.00 61 1014.9
20260906030954 22 292 3.2 3.2 0.00 0.00 0.00 61 1014.9
20260906030754 22 292 3.2 3.2 0.00 0.00 0.00 60 1014.9
20260906030554 22 292 4.8 4.8 0.00 0.00 0.00 60 1014.9
20260906025919 23 292 6.4 6.4 0.00 0.00 0.00 59 1014.9
20260906025718 23 315 9.7 9.7 0.00 0.00 0.00 59 1014.9
20260906025518 23 292 3.2 3.2 0.00 0.00 0.00 60 1014.9
20260906025307 23 292 6.4 8.0 0.00 0.00 0.00 59 1014.9
20260906025106 23 292 4.8 4.8 0.00 0.00 0.00 59 1014.9
20260906024906 23 292 4.8 4.8 0.00 0.00 0.00 59 1014.9
20260906024655 23 315 8.0 8.0 0.00 0.00 0.00 59 1014.9
20260906024454 23 292 9.7 9.7 0.00 0.00 0.00 59 1014.9
20260906024254 22 315 8.0 8.0 0.00 0.00 0.00 59 1014.9
20260906024043 22 315 3.2 3.2 0.00 0.00 0.00 59 1014.9
20260906023842 22 292 8.0 8.0 0.00 0.00 0.00 59 1014.9
20260906023642 22 292 8.0 8.0 0.00 0.00 0.00 59 1014.9
20260906023432 22 292 3.2 3.2 0.00 0.00 0.00 59 1014.9
20260906023230 23 292 8.0 8.0 0.00 0.00 0.00 59 1014.9
20260906023030 23 292 3.2 3.2 0.00 0.00 0.00 59 1014.9
20260906022819 23 315 3.2 3.2 0.00 0.00 0.00 58 1014.9
20260906022618 23 315 4.8 6.4 0.00 0.00 0.00 58 1014.9
20260906022418 23 315 4.8 4.8 0.00 0.00 0.00 58 1014.9
20260906022155 23 315 3.2 3.2 0.00 0.00 0.00 58 1014.9
20260906021954 23 315 3.2 3.2 0.00 0.00 0.00 58 1014.9
20260906021754 23 292 3.2 3.2 0.00 0.00 0.00 58 1014.9
20260906021543 23 292 3.2 3.2 0.00 0.00 0.00 58 1014.9
20260906021342 23 292 6.4 6.4 0.00 0.00 0.00 58 1014.9
20260906021142 23 292 4.8 4.8 0.00 0.00 0.00 58 1014.9
20260906020931 23 292 3.2 3.2 0.00 0.00 0.00 58 1014.9
20260906020730 23 292 3.2 3.2 0.00 0.00 0.00 57 1014.9
20260906020530 23 292 4.8 6.4 0.00 0.00 0.00 57 1014.9
20260906020321 23 292 3.2 3.2 0.00 0.00 0.00 57 1014.9
20260906020118 23 292 3.2 3.2 0.00 0.00 0.00 57 1014.9
20260906015918 23 270 4.8 4.8 0.00 0.00 0.00 57 1014.9
20260906015707 23 292 3.2 3.2 0.00 0.00 0.00 57 1014.9
20260906015506 23 292 4.8 4.8 0.00 0.00 0.00 57 1014.9
20260906015306 23 292 3.2 3.2 0.00 0.00 0.00 57 1014.9
20260906015055 23 292 4.8 4.8 0.00 0.00 0.00 56 1014.9
20260906014854 23 292 3.2 3.2 0.00 0.00 0.00 56 1014.9
20260906014654 23 292 4.8 4.8 0.00 0.00 0.00 56 1014.9
20260906014443 23 292 4.8 4.8 0.00 0.00 0.00 56 1014.9
20260906014242 23 292 4.8 4.8 0.00 0.00 0.00 55 1014.9
20260906014042 23 292 4.8 6.4 0.00 0.00 0.00 55 1014.9
20260906013831 23 292 3.2 3.2 0.00 0.00 0.00 55 1014.9
20260906013630 23 292 4.8 6.4 0.00 0.00 0.00 55 1014.9
20260906013418 23 292 4.8 4.8 0.00 0.00 0.00 55 1014.9
20260906013155 23 292 4.8 4.8 0.00 0.00 0.00 55 1014.9
20260906012942 23 292 4.8 4.8 0.00 0.00 0.00 55 1014.9
20260906012742 23 292 6.4 6.4 0.00 0.00 0.00 55 1014.9
20260906012531 23 292 8.0 8.0 0.00 0.00 0.00 55 1014.9
20260906012330 23 338 6.4 8.0 0.00 0.00 0.00 55 1014.9
20260906012130 23 292 3.2 3.2 0.00 0.00 0.00 55 1014.9
20260906011919 23 315 8.0 8.0 0.00 0.00 0.00 55 1014.9
20260906011718 23 292 4.8 6.4 0.00 0.00 0.00 55 1014.9
20260906011518 23 315 3.2 3.2 0.00 0.00 0.00 55 1014.9
20260906011307 23 292 6.4 8.0 0.00 0.00 0.00 55 1014.9
20260906011106 23 270 6.4 6.4 0.00 0.00 0.00 55 1014.9
20260906010906 23 292 8.0 8.0 0.00 0.00 0.00 55 1014.9
20260906010707 23 292 3.2 3.2 0.00 0.00 0.00 55 1014.9
20260906010454 23 292 4.8 4.8 0.00 0.00 0.00 55 1014.9
20260906010254 23 315 8.0 8.0 0.00 0.00 0.00 55 1014.9
20260906010043 23 292 4.8 6.4 0.00 0.00 0.00 56 1014.9
20260906005842 23 292 8.0 8.0 0.00 0.00 0.00 56 1014.9
20260906005642 23 292 8.0 8.0 0.00 0.00 0.00 57 1014.9
20260906005431 23 292 4.8 4.8 0.00 0.00 0.00 57 1014.9
20260906005230 23 292 4.8 6.4 0.00 0.00 0.00 57 1014.9
20260906005030 23 292 4.8 4.8 0.00 0.00 0.00 57 1014.9
20260906004819 24 338 6.4 8.0 0.00 0.00 0.00 57 1014.9
20260906004618 24 315 4.8 6.4 0.00 0.00 0.00 57 1014.9
20260906004418 24 292 4.8 4.8 0.00 0.00 0.00 56 1014.9
20260906004207 24 292 3.2 3.2 0.00 0.00 0.00 56 1014.9
20260906004006 24 292 4.8 4.8 0.00 0.00 0.00 55 1014.9
20260906003806 24 292 3.2 3.2 0.00 0.00 0.00 54 1014.9
20260906003555 25 292 3.2 3.2 0.00 0.00 0.00 54 1014.9
20260906003354 25 292 3.2 3.2 0.00 0.00 0.00 54 1014.9
20260906003154 25 292 3.2 3.2 0.00 0.00 0.00 53 1014.9
20260906002955 25 292 6.4 8.0 0.00 0.00 0.00 54 1014.9
20260906002754 25 292 4.8 6.4 0.00 0.00 0.00 54 1014.9
20260906002554 25 292 4.8 4.8 0.00 0.00 0.00 53 1014.9
20260906002343 25 292 4.8 6.4 0.00 0.00 0.00 53 1014.9
20260906002142 25 270 4.8 4.8 0.00 0.00 0.00 54 1014.9
20260906001942 25 292 3.2 3.2 0.00 0.00 0.00 54 1014.9
20260906001731 25 292 3.2 3.2 0.00 0.00 0.00 54 1014.9
20260906001530 25 292 4.8 6.4 0.00 0.00 0.00 54 1015.9
20260906001330 25 292 4.8 6.4 0.00 0.00 0.00 54 1015.9
20260906001131 25 292 3.2 3.2 0.00 0.00 0.00 55 1015.9
20260906000930 25 292 8.0 8.0 0.00 0.00 0.00 55 1015.9
20260906000730 25 292 8.0 9.7 0.00 0.00 0.00 55 1015.9
20260906000456 25 292 6.4 6.4 0.00 0.00 0.00 54 1015.9
20260906000256 25 292 8.0 8.0 0.00 0.00 0.00 54 1015.9
20260906000054 25 315 8.0 9.7 0.00 0.00 0.00 54 1015.9
20260905235843 25 292 4.8 4.8 0.00 0.00 0.00 53 1015.9
20260905235642 25 292 9.7 9.7 0.00 0.00 0.00 54 1015.9
20260905235442 25 292 4.8 4.8 0.00 0.00 0.00 54 1015.9
20260905235243 25 315 3.2 3.2 0.00 0.00 0.00 54 1015.9
20260905235042 25 292 3.2 3.2 0.00 0.00 0.00 54 1015.9
20260905234842 25 292 4.8 4.8 0.00 0.00 0.00 54 1015.9
20260905234643 25 292 3.2 3.2 0.00 0.00 0.00 54 1015.9
20260905234442 25 292 3.2 3.2 0.00 0.00 0.00 55 1015.9
20260905234242 25 315 3.2 3.2 0.00 0.00 0.00 55 1015.9
20260905234043 25 292 6.4 8.0 0.00 0.00 0.00 55 1015.9
20260905233842 25 292 4.8 4.8 0.00 0.00 0.00 55 1015.9
20260905233642 25 292 6.4 6.4 0.00 0.00 0.00 55 1015.9
20260905233431 25 292 4.8 4.8 0.00 0.00 0.00 55 1015.9
20260905233230 25 292 3.2 3.2 0.00 0.00 0.00 55 1015.9
20260905233030 25 292 3.2 3.2 0.00 0.00 0.00 55 1015.9
20260905232831 25 292 4.8 4.8 0.00 0.00 0.00 55 1015.9
20260905232630 25 292 4.8 4.8 0.00 0.00 0.00 55 1015.9
20260905232430 25 292 4.8 4.8 0.00 0.00 0.00 55 1015.9
20260905232231 25 292 4.8 4.8 0.00 0.00 0.00 56 1015.9
20260905232030 25 292 3.2 3.2 0.00 0.00 0.00 57 1015.9
20260905231830 25 292 3.2 3.2 0.00 0.00 0.00 57 1015.9
20260905231631 25 292 6.4 6.4 0.00 0.00 0.00 57 1015.9
20260905231430 25 292 3.2 3.2 0.00 0.00 0.00 57 1015.9
20260905231230 25 292 4.8 4.8 0.00 0.00 0.00 57 1015.9
20260905231019 25 292 4.8 4.8 0.00 0.00 0.00 57 1015.9
20260905230818 25 292 6.4 6.4 0.00 0.00 0.00 58 1015.9
20260905230618 25 292 4.8 6.4 0.00 0.00 0.00 58 1015.9
20260905230419 25 292 3.2 3.2 0.00 0.00 0.00 58 1015.9
20260905230218 25 292 3.2 3.2 0.00 0.00 0.00 58 1015.9
20260905230018 25 292 4.8 4.8 0.00 0.00 0.00 59 1015.9
20260905225819 25 292 3.2 3.2 0.00 0.00 0.00 60 1015.9
20260905225618 25 292 4.8 4.8 0.00 0.00 0.00 60 1015.9
20260905225418 25 292 4.8 4.8 0.00 0.00 0.00 60 1015.9
20260905225219 25 292 4.8 4.8 0.00 0.00 0.00 60 1015.9
20260905225018 25 292 9.7 9.7 0.00 0.00 0.00 59 1015.9
20260905224818 25 292 4.8 4.8 0.00 0.00 0.00 60 1015.9
20260905224607 26 292 4.8 4.8 0.00 0.00 0.00 60 1015.9
20260905224406 26 292 3.2 3.2 0.00 0.00 0.00 60 1015.9
20260905224206 26 292 4.8 4.8 0.00 0.00 0.00 62 1015.9
20260905224007 26 292 3.2 3.2 0.00 0.00 0.00 60 1015.9
20260905223806 26 292 4.8 4.8 0.00 0.00 0.00 60 1015.9
20260905223606 26 292 3.2 3.2 0.00 0.00 0.00 60 1015.9
20260905223407 26 292 4.8 4.8 0.00 0.00 0.00 59 1015.9
20260905223206 26 292 4.8 4.8 0.00 0.00 0.00 58 1015.9
20260905223006 26 292 4.8 4.8 0.00 0.00 0.00 58 1015.9
20260905222807 26 292 3.2 3.2 0.00 0.00 0.00 57 1015.9
20260905222606 26 292 4.8 4.8 0.00 0.00 0.00 57 1015.9
20260905222406 26 292 3.2 3.2 0.00 0.00 0.00 57 1015.9
20260905222156 26 292 3.2 3.2 0.00 0.00 0.00 56 1015.9
20260905221954 26 270 4.8 4.8 0.00 0.00 0.00 56 1015.9
20260905221759 26 292 4.8 6.4 0.00 0.00 0.00 56 1015.9
20260905221555 26 270 8.0 8.0 0.00 0.00 0.00 55 1015.9
20260905221354 26 292 4.8 6.4 0.00 0.00 0.00 55 1015.9
20260905221154 26 270 3.2 3.2 0.00 0.00 0.00 55 1015.9
20260905220955 26 292 6.4 6.4 0.00 0.00 0.00 55 1015.9
20260905220754 26 292 3.2 3.2 0.00 0.00 0.00 55 1015.9
20260905220554 26 315 8.0 8.0 0.00 0.00 0.00 54 1015.9
20260905220355 26 292 8.0 8.0 0.00 0.00 0.00 54 1015.9
20260905220154 26 292 6.4 6.4 0.00 0.00 0.00 54 1015.9
20260905215954 26 292 6.4 8.0 0.00 0.00 0.00 53 1015.9
20260905215755 26 292 8.0 9.7 0.00 0.00 0.00 53 1015.9
20260905215554 26 292 8.0 8.0 0.00 0.00 0.00 53 1015.9
20260905215354 26 292 6.4 6.4 0.00 0.00 0.00 53 1015.9
20260905215155 26 292 4.8 4.8 0.00 0.00 0.00 53 1015.9
20260905214954 26 315 6.4 6.4 0.00 0.00 0.00 52 1015.9
20260905214754 26 292 8.0 8.0 0.00 0.00 0.00 53 1015.9
20260905214555 26 292 3.2 3.2 0.00 0.00 0.00 53 1015.9
20260905214354 26 292 4.8 4.8 0.00 0.00 0.00 52 1015.9
20260905214154 26 292 3.2 3.2 0.00 0.00 0.00 52 1015.9
20260905213955 26 292 6.4 6.4 0.00 0.00 0.00 52 1015.9
20260905213754 26 315 3.2 3.2 0.00 0.00 0.00 52 1015.9
20260905213554 26 270 4.8 4.8 0.00 0.00 0.00 52 1015.9
20260905213355 26 315 3.2 3.2 0.00 0.00 0.00 52 1015.9
20260905213154 26 315 3.2 3.2 0.00 0.00 0.00 52 1014.9
20260905212954 26 315 3.2 3.2 0.00 0.00 0.00 52 1014.9
20260905212755 26 315 3.2 3.2 0.00 0.00 0.00 52 1014.9
20260905212554 26 315 3.2 3.2 0.00 0.00 0.00 52 1014.9
20260905212354 26 292 4.8 4.8 0.00 0.00 0.00 52 1014.9
20260905212155 26 292 3.2 3.2 0.00 0.00 0.00 52 1014.9
20260905211954 26 315 4.8 6.4 0.00 0.00 0.00 52 1014.9
20260905211754 26 315 3.2 3.2 0.00 0.00 0.00 53 1014.9
20260905211555 26 315 3.2 3.2 0.00 0.00 0.00 53 1014.9
20260905211354 26 315 3.2 3.2 0.00 0.00 0.00 53 1015.9
20260905211154 26 315 4.8 4.8 0.00 0.00 0.00 53 1015.9
20260905210943 26 315 4.8 6.4 0.00 0.00 0.00 53 1015.9
20260905210742 26 315 8.0 8.0 0.00 0.00 0.00 53 1015.9
20260905210542 26 315 4.8 4.8 0.00 0.00 0.00 53 1015.9
20260905210343 26 315 4.8 4.8 0.00 0.00 0.00 54 1015.9
20260905210142 26 315 3.2 3.2 0.00 0.00 0.00 54 1014.9
20260905205942 26 315 6.4 8.0 0.00 0.00 0.00 54 1014.9
20260905205743 27 315 3.2 3.2 0.00 0.00 0.00 53 1014.9
20260905205542 27 315 4.8 6.4 0.00 0.00 0.00 53 1014.9
20260905205342 27 315 3.2 3.2 0.00 0.00 0.00 52 1014.9
20260905205143 27 315 8.0 8.0 0.00 0.00 0.00 52 1014.9
20260905204942 27 315 8.0 8.0 0.00 0.00 0.00 53 1014.9
20260905204743 27 338 8.0 8.0 0.00 0.00 0.00 53 1014.9
20260905204543 27 338 4.8 6.4 0.00 0.00 0.00 53 1014.9
20260905204342 27 338 3.2 3.2 0.00 0.00 0.00 53 1014.9
20260905204142 27 338 4.8 4.8 0.00 0.00 0.00 52 1014.9
20260905203943 27 338 4.8 4.8 0.00 0.00 0.00 52 1014.9
20260905203742 27 338 6.4 8.0 0.00 0.00 0.00 52 1014.9
20260905203542 27 338 8.0 8.0 0.00 0.00 0.00 52 1014.9
20260905203343 27 338 3.2 3.2 0.00 0.00 0.00 53 1014.9
20260905203142 27 338 6.4 6.4 0.00 0.00 0.00 53 1014.9
20260905202942 27 338 3.2 3.2 0.00 0.00 0.00 53 1014.9
20260905202743 27 338 4.8 6.4 0.00 0.00 0.00 54 1014.9
20260905202542 27 338 4.8 4.8 0.00 0.00 0.00 54 1014.9
20260905202342 27 338 3.2 3.2 0.00 0.00 0.00 53 1014.9
20260905202143 27 338 3.2 3.2 0.00 0.00 0.00 53 1014.9
20260905201942 27 338 3.2 3.2 0.00 0.00 0.00 53 1014.9
20260905201742 27 338 3.2 3.2 0.00 0.00 0.00 53 1014.9
20260905201543 27 338 3.2 3.2 0.00 0.00 0.00 52 1014.9
20260905201342 28 338 3.2 3.2 0.00 0.00 0.00 52 1015.9
20260905201142 28 292 4.8 4.8 0.00 0.00 0.00 52 1015.9
20260905200943 28 292 3.2 3.2 0.00 0.00 0.00 51 1015.9
20260905200742 28 292 3.2 3.2 0.00 0.00 0.00 51 1015.9
20260905200542 28 292 3.2 3.2 0.00 0.00 0.00 51 1015.9
20260905200343 28 292 3.2 3.2 0.00 0.00 0.00 51 1015.9
20260905200142 28 292 3.2 3.2 0.00 0.00 0.00 50 1015.9
20260905195942 28 292 3.2 3.2 0.00 0.00 0.00 50 1015.9
20260905195745 28 292 3.2 3.2 0.00 0.00 0.00 51 1015.9
20260905195542 28 292 4.8 4.8 0.00 0.00 0.00 51 1015.9
20260905195342 28 292 3.2 3.2 0.00 0.00 0.00 51 1015.9
20260905195143 28 292 1.6 1.6 0.00 0.00 0.00 50 1015.9
20260905194942 28 292 3.2 3.2 0.00 0.00 0.00 51 1015.9
20260905194742 28 292 6.4 6.4 0.00 0.00 0.00 51 1015.9
20260905194543 28 292 4.8 4.8 0.00 0.00 0.00 51 1015.9
20260905194342 28 292 3.2 3.2 0.00 0.00 0.00 52 1015.9
20260905194144 28 292 1.6 1.6 0.00 0.00 0.00 52 1015.9
20260905193943 28 292 4.8 4.8 0.00 0.00 0.00 52 1015.9
20260905193742 28 292 6.4 6.4 0.00 0.00 0.00 52 1015.9
20260905193542 28 292 3.2 3.2 0.00 0.00 0.00 52 1015.9
20260905193343 28 292 3.2 3.2 0.00 0.00 0.00 52 1015.9
20260905193142 28 292 3.2 3.2 0.00 0.00 0.00 52 1014.9
20260905192942 28 292 3.2 3.2 0.00 0.00 0.00 52 1014.9
20260905192743 28 292 3.2 3.2 0.00 0.00 0.00 52 1014.9
20260905192542 28 292 0.0 0.0 0.00 0.00 0.00 52 1014.9
20260905192254 28 292 4.8 4.8 0.00 0.00 0.00 52 1014.9
20260905192055 28 292 4.8 6.4 0.00 0.00 0.00 52 1014.9
20260905191854 28 292 3.2 3.2 0.00 0.00 0.00 53 1015.9
20260905191654 28 292 3.2 3.2 0.00 0.00 0.00 53 1015.9
20260905191455 28 292 4.8 4.8 0.00 0.00 0.00 53 1015.9
20260905191254 28 292 3.2 3.2 0.00 0.00 0.00 53 1015.9
20260905191054 28 292 3.2 3.2 0.00 0.00 0.00 53 1015.9
20260905190855 28 292 3.2 3.2 0.00 0.00 0.00 53 1015.9
20260905190654 28 292 3.2 3.2 0.00 0.00 0.00 53 1015.9
20260905190454 28 292 4.8 4.8 0.00 0.00 0.00 53 1015.9
20260905190255 28 292 3.2 3.2 0.00 0.00 0.00 53 1015.9
20260905190054 28 292 4.8 4.8 0.00 0.00 0.00 53 1014.9
20260905185854 28 292 3.2 3.2 0.00 0.00 0.00 52 1014.9
20260905185643 28 292 4.8 4.8 0.00 0.00 0.00 52 1014.9
20260905185442 29 292 6.4 6.4 0.00 0.00 0.00 52 1014.9
20260905185242 29 292 3.2 3.2 0.00 0.00 0.00 52 1014.9
20260905185043 29 292 1.6 1.6 0.00 0.00 0.00 52 1014.9
20260905184843 29 292 6.4 6.4 0.00 0.00 0.00 52 1014.9
20260905184630 29 292 3.2 3.2 0.00 0.00 0.00 52 1014.9
20260905184431 29 292 4.8 4.8 0.00 0.00 0.00 53 1014.9
20260905184230 29 292 4.8 4.8 0.00 0.00 0.00 53 1014.9
20260905184030 28 292 3.2 3.2 0.00 0.00 0.00 54 1014.9
20260905183831 28 270 3.2 3.2 0.00 0.00 0.00 54 1014.9
20260905183619 28 270 4.8 6.4 0.00 0.00 0.00 55 1014.9
20260905183418 28 248 6.4 8.0 0.00 0.00 0.00 56 1014.9
20260905183211 28 292 4.8 4.8 0.00 0.00 0.00 57 1014.9
20260905183006 28 292 4.8 4.8 0.00 0.00 0.00 57 1014.9
20260905182806 29 292 4.8 4.8 0.00 0.00 0.00 58 1014.9
20260905182607 29 315 3.2 3.2 0.00 0.00 0.00 58 1014.9
20260905182406 29 315 3.2 3.2 0.00 0.00 0.00 57 1014.9
20260905182206 29 315 1.6 1.6 0.00 0.00 0.00 57 1014.9
20260905182007 29 315 3.2 3.2 0.00 0.00 0.00 58 1014.9
20260905181754 29 315 0.0 0.0 0.00 0.00 0.00 58 1014.9
20260905181554 29 315 1.6 1.6 0.00 0.00 0.00 58 1014.9
20260905181355 29 315 3.2 3.2 0.00 0.00 0.00 58 1014.9
20260905181154 29 315 3.2 3.2 0.00 0.00 0.00 58 1014.9
20260905180954 29 315 3.2 3.2 0.00 0.00 0.00 58 1014.9
20260905180755 29 315 4.8 4.8 0.00 0.00 0.00 58 1014.9
20260905180554 29 338 4.8 4.8 0.00 0.00 0.00 58 1014.9
20260905180354 29 315 8.0 8.0 0.00 0.00 0.00 58 1014.9
20260905180144 29 338 4.8 4.8 0.00 0.00 0.00 58 1014.9
20260905175942 29 338 9.7 9.7 0.00 0.00 0.00 58 1013.9
20260905175742 29 338 8.0 8.0 0.00 0.00 0.00 58 1013.9
20260905175543 29 315 9.7 9.7 0.00 0.00 0.00 59 1013.9
20260905175458 29 315 3.2 3.2 0.00 0.00 0.00 61
20260905175040 30 292 8.0 8.0 0.00 0.00 0.00 60
20260905174654 30 0 4.8 4.8 0.00 0.00 0.00 60 1013.9
20260905174454 30 68 4.8 4.8 0.00 0.00 0.00 60 1013.9
20260905174255 30 68 1.6 1.6 0.00 0.00 0.00 59 1013.9
20260905174054 30 68 3.2 3.2 0.00 0.00 0.00 59 1013.9
20260905173854 30 68 3.2 3.2 0.00 0.00 0.00 59 1013.9
20260905173643 30 68 8.0 9.7 0.00 0.00 0.00 59 1013.9
20260905173442 30 68 6.4 8.0 0.00 0.00 0.00 59 1013.9
20260905173242 30 68 8.0 8.0 0.00 0.00 0.00 59 1013.9
20260905173043 30 68 6.4 8.0 0.00 0.00 0.00 55 1013.9
20260905172842 30 112 4.8 4.8 0.00 0.00 0.00 53
20260905172713 30 112 6.4 8.0 0.00 0.00 0.00 54
20260905172154 30 112 8.0 8.0 0.00 0.00 0.00 54 1013.9
20260905171956 30 135 3.2 3.2 0.00 0.00 0.00 55 1013.9
20260905171755 30 112 8.0 8.0 0.00 0.00 0.00 55 1013.9
20260905171554 31 90 8.0 8.0 0.00 0.00 0.00 56 1013.9
20260905171355 31 135 8.0 8.0 0.00 0.00 0.00 56 1013.9
20260905171155 31 158 6.4 8.0 0.00 0.00 0.00 56 1013.9
20260905170954 31 135 8.0 8.0 0.00 0.00 0.00 57 1013.9
20260905170754 31 135 9.7 9.7 0.00 0.00 0.00 56 1013.9
20260905170555 31 112 6.4 8.0 0.00 0.00 0.00 56 1013.9
20260905170354 31 158 9.7 9.7 0.00 0.00 0.00 56 1013.9
20260905170154 31 135 8.0 8.0 0.00 0.00 0.00 56 1013.9
20260905165955 31 135 3.2 3.2 0.00 0.00 0.00 56 1013.9
20260905165754 31 135 9.7 9.7 0.00 0.00 0.00 55 1013.9
20260905165554 31 112 4.8 6.4 0.00 0.00 0.00 55 1013.9
20260905165355 31 158 9.7 9.7 0.00 0.00 0.00 56 1013.9
20260905165154 31 135 12.9 14.5 0.00 0.00 0.00 55 1013.9
20260905164954 31 158 8.0 9.7 0.00 0.00 0.00 55 1013.9
20260905164755 31 135 11.3 12.9 0.00 0.00 0.00 55 1013.9
20260905164554 31 135 12.9 12.9 0.00 0.00 0.00 55 1013.9
20260905164354 31 135 9.7 11.3 0.00 0.00 0.00 54 1013.9
20260905164155 31 158 9.7 9.7 0.00 0.00 0.00 53 1013.9
20260905163954 31 158 9.7 11.3 0.00 0.00 0.00 52 1013.9
20260905163754 31 158 12.9 12.9 0.00 0.00 0.00 52 1013.9
20260905163554 31 135 12.9 14.5 0.00 0.00 0.00 52 1013.9
20260905163342 31 135 12.9 14.5 0.00 0.00 0.00 52 1013.9
20260905163142 32 158 9.7 11.3 0.00 0.00 0.00 52 1013.9
20260905162943 32 158 6.4 8.0 0.00 0.00 0.00 52 1013.9
20260905162742 32 180 9.7 9.7 0.00 0.00 0.00 51
20260905162542 32 158 6.4 8.0 0.00 0.00 0.00 50
20260905162319 32 158 11.3 12.9 0.00 0.00 0.00 50
20260905162054 32 180 9.7 11.3 0.00 0.00 0.00 50 1013.9
20260905161854 32 135 9.7 11.3 0.00 0.00 0.00 50 1013.9
20260905161655 32 180 12.9 14.5 0.00 0.00 0.00 50 1013.9
20260905161454 32 135 6.4 8.0 0.00 0.00 0.00 49 1014.9
20260905161254 32 158 14.5 14.5 0.00 0.00 0.00 48 1014.9
20260905161055 32 180 11.3 11.3 0.00 0.00 0.00 48 1014.9
20260905160854 32 158 14.5 16.1 0.00 0.00 0.00 48 1014.9
20260905160654 32 158 9.7 9.7 0.00 0.00 0.00 47 1014.9
20260905160455 32 202 11.3 11.3 0.00 0.00 0.00 46 1014.9
20260905160254 32 158 16.1 17.7 0.00 0.00 0.00 46 1013.9
20260905160054 32 158 14.5 16.1 0.00 0.00 0.00 46 1013.9
20260905155855 32 202 11.3 11.3 0.00 0.00 0.00 46 1013.9
20260905155642 33 158 14.5 16.1 0.00 0.00 0.00 45 1013.9
20260905155442 33 180 9.7 9.7 0.00 0.00 0.00 44 1013.9
20260905155243 33 180 6.4 8.0 0.00 0.00 0.00 44 1013.9
20260905155042 33 202 16.1 19.3 0.00 0.00 0.00 44 1013.9
20260905154830 33 202 17.7 17.7 0.00 0.00 0.00 43 1013.9
20260905154619 33 202 11.3 12.9 0.00 0.00 0.00 43 1013.9
20260905154418 33 158 11.3 11.3 0.00 0.00 0.00 43 1013.9
20260905154218 33 202 14.5 16.1 0.00 0.00 0.00 42 1013.9
20260905154019 33 202 16.1 16.1 0.00 0.00 0.00 43 1013.9
20260905153818 33 202 12.9 12.9 0.00 0.00 0.00 44 1013.9
20260905153618 33 202 17.7 19.3 0.00 0.00 0.00 44 1013.9
20260905153419 33 180 14.5 17.7 0.00 0.00 0.00 45 1013.9
20260905153218 33 202 16.1 17.7 0.00 0.00 0.00 45 1014.9
20260905153018 33 202 14.5 17.7 0.00 0.00 0.00 44 1014.9
20260905152818 33 180 14.5 16.1 0.00 0.00 0.00 45 1014.9
20260905152606 33 158 11.3 11.3 0.00 0.00 0.00 44 1014.9
20260905152354 33 202 14.5 16.1 0.00 0.00 0.00 44 1014.9
20260905152143 33 158 12.9 14.5 0.00 0.00 0.00 44 1014.9
20260905151942 33 202 17.7 19.3 0.00 0.00 0.00 44 1014.9
20260905151742 33 180 11.3 12.9 0.00 0.00 0.00 44 1014.9
20260905151543 33 158 12.9 12.9 0.00 0.00 0.00 44 1014.9
20260905151330 33 202 12.9 12.9 0.00 0.00 0.00 43 1013.9
20260905151118 33 158 12.9 14.5 0.00 0.00 0.00 42 1013.9
20260905150907 33 180 14.5 17.7 0.00 0.00 0.00 42 1013.9
20260905150654 33 180 11.3 12.9 0.00 0.00 0.00 42 1013.9
20260905150454 33 202 12.9 14.5 0.00 0.00 0.00 41 1013.9
20260905150242 33 180 11.3 12.9 0.00 0.00 0.00 42 1013.9
20260905150042 33 202 12.9 12.9 0.00 0.00 0.00 42 1013.9
20260905145818 33 180 12.9 14.5 0.00 0.00 0.00 41 1013.9
20260905145608 33 180 14.5 16.1 0.00 0.00 0.00 40 1013.9
20260905145330 33 202 19.3 22.5 0.00 0.00 0.00 41 1013.9
20260905145106 33 180 16.1 17.7 0.00 0.00 0.00 41 1013.9
20260905144854 33 202 17.7 17.7 0.00 0.00 0.00 41 1014.9
20260905144642 33 202 16.1 17.7 0.00 0.00 0.00 46 1014.9
20260905144431 33 158 12.9 12.9 0.00 0.00 0.00 50 1014.9
20260905144206 33 225 11.3 12.9 0.00 0.00 0.00 51 1014.9
20260905143954 33 158 14.5 14.5 0.00 0.00 0.00 50 1014.9
20260905143743 33 202 16.1 17.7 0.00 0.00 0.00 49 1014.9
20260905143530 33 112 12.9 14.5 0.00 0.00 0.00 49 1014.9
20260905143330 33 158 16.1 17.7 0.00 0.00 0.00 49 1014.9
20260905143118 33 158 16.1 17.7 0.00 0.00 0.00 50 1014.9
20260905142918 33 158 11.3 12.9 0.00 0.00 0.00 52 1014.9
20260905142718 33 158 16.1 17.7 0.00 0.00 0.00 52 1014.9
20260905142506 33 202 14.5 14.5 0.00 0.00 0.00 51 1014.9
20260905142254 33 158 11.3 12.9 0.00 0.00 0.00 52 1014.9
20260905142042 33 202 16.1 17.7 0.00 0.00 0.00 54 1014.9
20260905141842 33 158 12.9 14.5 0.00 0.00 0.00 53 1014.9
20260905141630 33 180 17.7 19.3 0.00 0.00 0.00 51 1014.9
20260905141430 33 180 14.5 17.7 0.00 0.00 0.00 54 1014.9
20260905141206 33 158 12.9 14.5 0.00 0.00 0.00 51 1014.9
20260905141006 33 202 14.5 16.1 0.00 0.00 0.00 51 1014.9
20260905140806 33 202 14.5 16.1 0.00 0.00 0.00 52 1014.9
20260905140518 33 135 14.5 16.1 0.00 0.00 0.00 52 1014.9
20260905140254 33 180 14.5 16.1 0.00 0.00 0.00 51 1014.9
20260905140054 33 180 12.9 14.5 0.00 0.00 0.00 51 1014.9
20260905135842 33 158 12.9 14.5 0.00 0.00 0.00 50 1014.9
20260905135630 33 202 11.3 12.9 0.00 0.00 0.00 50 1014.9
20260905135342 33 158 11.3 11.3 0.00 0.00 0.00 48 1014.9
20260905135106 33 180 14.5 14.5 0.00 0.00 0.00 50 1014.9
20260905134906 33 180 11.3 12.9 0.00 0.00 0.00 48 1014.9
20260905134618 33 202 12.9 14.5 0.00 0.00 0.00 48 1014.9
20260905134418 33 158 8.0 8.0 0.00 0.00 0.00 47 1014.9
20260905134218 33 202 14.5 16.1 0.00 0.00 0.00 48 1014.9
20260905134006 33 180 11.3 11.3 0.00 0.00 0.00 49 1014.9
20260905133806 33 202 14.5 16.1 0.00 0.00 0.00 50 1014.9
20260905133530 33 158 11.3 11.3 0.00 0.00 0.00 49 1014.9
20260905133318 33 158 12.9 12.9 0.00 0.00 0.00 48 1014.9
20260905133120 33 180 14.5 16.1 0.00 0.00 0.00 47 1014.9
20260905132919 33 202 14.5 16.1 0.00 0.00 0.00 47 1014.9
20260905132706 33 158 9.7 9.7 0.00 0.00 0.00 44 1014.9
20260905132506 33 202 6.4 8.0 0.00 0.00 0.00 45 1014.9
20260905132306 33 225 14.5 16.1 0.00 0.00 0.00 45 1014.9
20260905132030 33 225 6.4 8.0 0.00 0.00 0.00 48 1014.9
20260905131830 33 202 12.9 16.1 0.00 0.00 0.00 48 1014.9
20260905131630 33 158 16.1 16.1 0.00 0.00 0.00 47 1014.9
20260905131420 33 180 9.7 11.3 0.00 0.00 0.00 50 1014.9
20260905131218 33 135 12.9 14.5 0.00 0.00 0.00 48 1014.9
20260905131018 33 180 12.9 14.5 0.00 0.00 0.00 49 1014.9
20260905130806 33 135 12.9 14.5 0.00 0.00 0.00 48 1014.9
20260905130606 33 135 14.5 16.1 0.00 0.00 0.00 46 1014.9
20260905130406 33 202 11.3 11.3 0.00 0.00 0.00 45 1014.9
20260905130154 33 158 14.5 16.1 0.00 0.00 0.00 45 1014.9
20260905125954 33 180 12.9 12.9 0.00 0.00 0.00 45 1014.9
20260905125742 33 202 12.9 12.9 0.00 0.00 0.00 44 1014.9
20260905125530 33 135 12.9 14.5 0.00 0.00 0.00 44 1014.9
20260905125330 33 202 9.7 9.7 0.00 0.00 0.00 44 1014.9
20260905125118 33 158 11.3 12.9 0.00 0.00 0.00 43 1014.9
20260905124906 33 135 11.3 11.3 0.00 0.00 0.00 43 1014.9
20260905124706 34 112 11.3 12.9 0.00 0.00 0.00 44 1015.9
20260905124454 34 158 14.5 16.1 0.00 0.00 0.00 43 1015.9
20260905124242 34 180 14.5 14.5 0.00 0.00 0.00 43 1015.9
20260905124030 34 158 6.4 8.0 0.00 0.00 0.00 42 1015.9
20260905123830 34 158 14.5 16.1 0.00 0.00 0.00 42 1015.9
20260905123619 34 158 9.7 9.7 0.00 0.00 0.00 40 1015.9
20260905123418 34 180 9.7 9.7 0.00 0.00 0.00 41 1015.9
20260905123218 34 158 11.3 12.9 0.00 0.00 0.00 39 1015.9
20260905123006 34 202 8.0 8.0 0.00 0.00 0.00 39 1015.9
20260905122754 34 202 9.7 9.7 0.00 0.00 0.00 40 1015.9
20260905122554 34 158 9.7 9.7 0.00 0.00 0.00 42 1015.9
20260905122330 34 180 16.1 17.7 0.00 0.00 0.00 39 1015.9
20260905122130 34 158 9.7 11.3 0.00 0.00 0.00 38 1015.9
20260905121930 35 158 8.0 8.0 0.00 0.00 0.00 39 1015.9
20260905121721 35 158 12.9 12.9 0.00 0.00 0.00 40 1015.9
20260905121518 35 158 14.5 16.1 0.00 0.00 0.00 38 1015.9
20260905121254 35 202 12.9 14.5 0.00 0.00 0.00 37 1015.9
20260905121042 35 158 12.9 14.5 0.00 0.00 0.00 38 1015.9
20260905120842 35 135 12.9 14.5 0.00 0.00 0.00 37 1015.9
20260905120642 35 180 11.3 12.9 0.00 0.00 0.00 36 1015.9
20260905120409 35 112 9.7 9.7 0.00 0.00 0.00 36 1015.9
20260905120208 35 202 9.7 11.3 0.00 0.00 0.00 37 1015.9
20260905115954 35 135 12.9 14.5 0.00 0.00 0.00 33 1015.9
20260905115742 35 112 11.3 11.3 0.00 0.00 0.00 33 1015.9
20260905115542 35 112 9.7 9.7 0.00 0.00 0.00 33 1015.9
20260905115342 35 112 3.2 3.2 0.00 0.00 0.00 33 1015.9
20260905115130 35 90 8.0 8.0 0.00 0.00 0.00 32 1015.9
20260905114930 35 90 9.7 9.7 0.00 0.00 0.00 32 1015.9
20260905114730 35 112 1.6 1.6 0.00 0.00 0.00 32 1015.9
20260905114518 35 68 8.0 8.0 0.00 0.00 0.00 32 1015.9
20260905114318 35 68 3.2 3.2 0.00 0.00 0.00 33 1015.9
20260905114118 35 112 8.0 8.0 0.00 0.00 0.00 33 1015.9
20260905113907 35 68 9.7 11.3 0.00 0.00 0.00 33 1015.9
20260905113706 35 158 14.5 16.1 0.00 0.00 0.00 31 1015.9
20260905113506 35 68 11.3 11.3 0.00 0.00 0.00 32 1015.9
20260905113254 35 112 11.3 11.3 0.00 0.00 0.00 32 1015.9
20260905113054 35 135 12.9 12.9 0.00 0.00 0.00 32 1015.9
20260905112854 35 90 4.8 6.4 0.00 0.00 0.00 32 1015.9
20260905112642 35 158 3.2 3.2 0.00 0.00 0.00 33 1015.9
20260905112442 35 68 3.2 3.2 0.00 0.00 0.00 32 1015.9
20260905112242 35 112 9.7 11.3 0.00 0.00 0.00 32 1015.9
20260905112030 35 112 3.2 3.2 0.00 0.00 0.00 31 1015.9
20260905111830 35 135 9.7 9.7 0.00 0.00 0.00 31 1015.9
20260905111618 35 158 8.0 8.0 0.00 0.00 0.00 33 1015.9
20260905111406 35 135 8.0 8.0 0.00 0.00 0.00 33 1015.9
20260905111206 35 135 9.7 9.7 0.00 0.00 0.00 33 1015.9
20260905111006 35 135 9.7 11.3 0.00 0.00 0.00 32 1015.9
20260905110754 35 135 9.7 11.3 0.00 0.00 0.00 33 1015.9
20260905110554 35 90 14.5 16.1 0.00 0.00 0.00 33 1015.9
20260905110354 35 112 9.7 9.7 0.00 0.00 0.00 32 1015.9
20260905110142 35 112 12.9 14.5 0.00 0.00 0.00 33 1015.9
20260905105942 35 112 9.7 9.7 0.00 0.00 0.00 32 1015.9
20260905105742 35 68 8.0 9.7 0.00 0.00 0.00 34 1015.9
20260905105530 35 68 4.8 6.4 0.00 0.00 0.00 32 1015.9
20260905105330 35 68 11.3 12.9 0.00 0.00 0.00 32 1015.9
20260905105130 35 68 11.3 11.3 0.00 0.00 0.00 31 1015.9
20260905104918 35 90 9.7 9.7 0.00 0.00 0.00 33 1015.9
20260905104718 35 112 9.7 11.3 0.00 0.00 0.00 33 1015.9
20260905104518 35 135 11.3 12.9 0.00 0.00 0.00 33 1015.9
20260905104306 34 135 6.4 8.0 0.00 0.00 0.00 33 1015.9
20260905104041 34 90 12.9 12.9 0.00 0.00 0.00 33 1015.9
20260905103842 34 68 9.7 9.7 0.00 0.00 0.00 33 1015.9
20260905103631 34 112 9.7 11.3 0.00 0.00 0.00 33 1015.9
20260905103430 34 68 3.2 3.2 0.00 0.00 0.00 33 1015.9
20260905103230 34 90 8.0 8.0 0.00 0.00 0.00 33 1015.9
20260905103018 34 90 8.0 8.0 0.00 0.00 0.00 33 1015.9
20260905102818 34 45 6.4 6.4 0.00 0.00 0.00 33 1015.9
20260905102618 34 68 12.9 12.9 0.00 0.00 0.00 33 1015.9
20260905102406 34 90 1.6 1.6 0.00 0.00 0.00 34 1015.9
20260905102206 34 90 3.2 3.2 0.00 0.00 0.00 35 1015.9
20260905102005 34 112 8.0 8.0 0.00 0.00 0.00 34 1015.9